Change the Weather History Date:

Friday, April 11, 2014

  Actual Average Record
Temperature  
Mean Temperature 45 °F 42 °F  
Max Temperature 57 °F 52 °F 82 °F (1977)
Min Temperature 33 °F 32 °F 18 °F (1973)
Degree Days  
Heating Degree Days 20 23  
Month to date heating degree days 260 277  
Since 1 July heating degree days 8035 7177  
Cooling Degree Days 0 0  
Month to date cooling degree days 0 0  
Year to date cooling degree days 0 0  
Moisture  
Dew Point 33 °F    
Average Humidity 62    
Maximum Humidity 85    
Minimum Humidity 38    
Precipitation  
Precipitation T in 0.09 in 1.21 in (2001)
Month to date precipitation 0.32 0.91  
Year to date precipitation 4.02 5.00  
Snow  
Snow 0.00 in 0.20 in 3.20 in (2007)
Month to date snowfall 0.2 1.6  
Since 1 July snowfall 68.6 49.9  
Snow Depth 0.00 in    
Sea Level Pressure  
Sea Level Pressure 29.99 in    
Wind  
Wind Speed 5 mph (WSW)    
Max Wind Speed 22 mph    
Max Gust Speed 29 mph    
Visibility 10 miles    
Events Rain    
T = Trace of Precipitation, MM = Missing Value Source: NWS Daily Summary

Daily Weather History Graph

Daily Weather History Graph

Search for Another Location

Airport or City:

Trip Planner

Search our weather history database for the weather conditions in past years. The results will help you decide how hot, cold, wet, or windy it might be!

Date:

Astronomy

Apr. 11, 2014 Rise Set
Actual Time 6:15 AM CDT 7:32 PM CDT
Civil Twilight 5:45 AM CDT 8:02 PM CDT
Nautical Twilight 5:09 AM CDT 8:38 PM CDT
Astronomical Twilight 4:31 AM CDT 9:17 PM CDT
Moon 4:05 PM CDT (4/11) 4:18 AM CDT (4/11)
Length of Visible Light 14h 16m
Length of Day
13h 16m
Waxing Gibbous, 87% of the Moon is Illuminated
Apr 11
Waxing Gibbous
Apr 15
Full
Apr 22
Last Quarter
Apr 29
New
May 6
First Quarter

Hourly Weather History & Observations

Time (CDT) Temp. Windchill Dew Point Humidity Pressure Visibility Wind Dir Wind Speed Gust Speed Precip Events Conditions
12:53 AM 37.0 °F - 27.0 °F 67% 29.94 in 10.0 mi Calm Calm - N/A   Clear
1:53 AM 37.0 °F 34.5 °F 26.1 °F 65% 29.94 in 10.0 mi SW 3.5 mph - N/A   Clear
2:53 AM 37.9 °F 35.5 °F 25.0 °F 60% 29.94 in 10.0 mi West 3.5 mph - N/A   Clear
3:53 AM 34.0 °F - 28.9 °F 82% 29.94 in 10.0 mi Calm Calm - N/A   Clear
4:53 AM 34.0 °F 31.0 °F 28.9 °F 82% 29.95 in 10.0 mi South 3.5 mph - N/A   Clear
5:53 AM 36.0 °F 33.3 °F 26.1 °F 67% 29.97 in 10.0 mi SSW 3.5 mph - N/A   Clear
6:53 AM 36.0 °F 32.1 °F 27.0 °F 70% 29.99 in 10.0 mi SSW 4.6 mph - N/A   Clear
7:53 AM 39.0 °F 34.8 °F 28.0 °F 65% 30.01 in 10.0 mi SSW 5.8 mph - N/A   Partly Cloudy
8:53 AM 43.0 °F 40.3 °F 30.0 °F 60% 30.01 in 10.0 mi SW 4.6 mph - N/A   Overcast
9:53 AM 46.9 °F - 30.9 °F 54% 30.00 in 10.0 mi SSW 6.9 mph - N/A   Mostly Cloudy
10:53 AM 51.1 °F - 32.0 °F 48% 30.00 in 10.0 mi SW 5.8 mph - N/A   Overcast
11:53 AM 55.0 °F - 32.0 °F 42% 30.00 in 10.0 mi West 11.5 mph - N/A   Overcast
12:53 PM 55.0 °F - 30.9 °F 40% 29.99 in 10.0 mi West 11.5 mph - N/A   Mostly Cloudy
1:53 PM 53.1 °F - 34.0 °F 48% 29.99 in 10.0 mi WSW 13.8 mph - N/A   Overcast
2:53 PM 53.1 °F - 36.0 °F 52% 29.98 in 10.0 mi West 10.4 mph - N/A   Overcast
3:53 PM 50.0 °F - 42.1 °F 74% 29.99 in 9.0 mi NNW 10.4 mph - 0.00 in Rain Light Rain
4:53 PM 51.1 °F - 39.9 °F 66% 29.99 in 10.0 mi WNW 3.5 mph - 0.00 in   Mostly Cloudy
5:53 PM 54.0 °F - 39.9 °F 59% 29.98 in 10.0 mi WNW 3.5 mph - N/A   Partly Cloudy
6:53 PM 53.1 °F - 39.0 °F 59% 29.98 in 10.0 mi Calm Calm - N/A   Clear
7:53 PM 48.0 °F - 37.9 °F 68% 29.99 in 10.0 mi Calm Calm - N/A   Clear
8:53 PM 44.1 °F 41.5 °F 37.0 °F 76% 30.01 in 10.0 mi SE 4.6 mph - N/A   Clear
9:53 PM 42.1 °F - 37.0 °F 82% 30.03 in 10.0 mi Calm Calm - N/A   Clear
10:53 PM 42.1 °F 38.4 °F 37.0 °F 82% 30.04 in 10.0 mi South 5.8 mph - N/A   Clear
11:53 PM 39.0 °F - 36.0 °F 89% 30.03 in 10.0 mi Calm Calm - N/A   Clear